WetterOnline ( https://www.wetteronline.de )

Wetter aktuell Pommard

Aktuelles Wetter: Dijon-Longvic Aéroport (227m)

6-stündlich | Neueste Meldungen
Ortszeit Temperatur Wetter
Mo, 27.05. 14:00 18.0° C bedeckt
Mo, 27.05. 8:00 13.8° C bedeckt
Mo, 27.05. 2:00 13.7° C bedeckt
So, 26.05. 20:00 17.2° C bedeckt
So, 26.05. 14:00 16.5° C leichter Regen
So, 26.05. 8:00 13.7° C bedeckt
So, 26.05. 2:00 13.3° C bedeckt
Sa, 25.05. 20:00 20.4° C bewölkt
Ortszeit Temperatur Wetter
Mo, 27.05. 14:00 18.0° C bedeckt
Mo, 27.05. 13:00 18.6° C bedeckt
Mo, 27.05. 12:00 18.5° C -
Mo, 27.05. 11:00 17.6° C bewölkt
Mo, 27.05. 10:00 15.9° C bedeckt
Mo, 27.05. 9:00 14.4° C bedeckt
Mo, 27.05. 8:00 13.8° C bedeckt
Ortszeit Relative Feuchte Sichtweite
Mo, 27.05. 14:00 69% 35 km
Mo, 27.05. 8:00 96% 19 km
Mo, 27.05. 2:00 93% 25 km
So, 26.05. 20:00 76% 45 km
So, 26.05. 14:00 85% 21 km
So, 26.05. 8:00 88% 50 km
So, 26.05. 2:00 85% 35 km
Sa, 25.05. 20:00 52% 55 km
Ortszeit Relative Feuchte Sichtweite
Mo, 27.05. 14:00 69% 35 km
Mo, 27.05. 13:00 65% 19 km
Mo, 27.05. 12:00 66% 19 km
Mo, 27.05. 11:00 67% 45 km
Mo, 27.05. 10:00 80% 19 km
Mo, 27.05. 9:00 95% 35 km
Mo, 27.05. 8:00 96% 19 km
Ortszeit Niederschlagsmenge Niederschlagsart
Mo, 27.05. 14:00 0.0 l/m2 in 6 Std. -
Mo, 27.05. 8:00 0.6 l/m2 in 12 Std. -
Mo, 27.05. 2:00 0.4 l/m2 in 6 Std. -
So, 26.05. 20:00 0.4 l/m2 in 12 Std. -
So, 26.05. 14:00 0.4 l/m2 in 6 Std. -
So, 26.05. 8:00 0.0 l/m2 in 12 Std. -
So, 26.05. 2:00 0.0 l/m2 in 6 Std. -
Sa, 25.05. 20:00 0.0 l/m2 in 12 Std. -
Ortszeit Niederschlagsmenge Niederschlagsart
Mo, 27.05. 14:00 keine Meldung -
Mo, 27.05. 13:00 0.0 l/m2 in 1 Std. -
Mo, 27.05. 12:00 0.0 l/m2 in 1 Std. -
Mo, 27.05. 11:00 keine Meldung -
Mo, 27.05. 10:00 0.0 l/m2 in 1 Std. -
Mo, 27.05. 9:00 0.0 l/m2 in 1 Std. -
Mo, 27.05. 8:00 keine Meldung -
Ortszeit Stärke Spitze Richtung
km/h Bft. km/h Grad Sektor
Mo, 27.05. 14:00 9 2 19 190° S
Mo, 27.05. 8:00 6 1 11 130° SO
Mo, 27.05. 2:00 4 1 9 210° SW
So, 26.05. 20:00 6 1 17 200° S
So, 26.05. 14:00 6 1 15 240° SW
So, 26.05. 8:00 0 0 9 - -
So, 26.05. 2:00 6 1 7 340° N
Sa, 25.05. 20:00 0 0 7 - -
Ortszeit Stärke Spitze Richtung
km/h Bft. km/h Grad Sektor
Mo, 27.05. 14:00 9 2 19 190° S
Mo, 27.05. 13:00 9 2 31 170° S
Mo, 27.05. 12:00 7 2 17 120° SO
Mo, 27.05. 11:00 6 1 11 200° S
Mo, 27.05. 10:00 4 1 9 180° S
Mo, 27.05. 9:00 2 1 9 100° O
Mo, 27.05. 8:00 6 1 11 130° SO
Ortszeit Untergrenze Bedeckung Gattung
total tief tief mittel hoch
Mo, 27.05. 14:00 - 8/8 - - - -
Mo, 27.05. 8:00 - 8/8 - - - -
Mo, 27.05. 2:00 - 8/8 - - - -
So, 26.05. 20:00 - 8/8 - - - -
So, 26.05. 14:00 - 8/8 - - - -
So, 26.05. 8:00 - 8/8 - - - -
So, 26.05. 2:00 - 8/8 - - - -
Sa, 25.05. 20:00 - 7/8 - - - -
Ortszeit Bedeckungsgrad in Achtel und Wolkenuntergrenze
Mo, 27.05. 14:00 8
Mo, 27.05. 13:00 8
Mo, 27.05. 12:00 -
Mo, 27.05. 11:00 7
Mo, 27.05. 10:00 8
Mo, 27.05. 9:00 8
Mo, 27.05. 8:00 8
Ortszeit Luftdruck NN (hPa) Tendenz (hPa in 3 Std.)
Mo, 27.05. 14:00 1018 - 1,0
Mo, 27.05. 8:00 1020 + 0,6
Mo, 27.05. 2:00 1020 + 0,2
So, 26.05. 20:00 1018 + 0,3
So, 26.05. 14:00 1018 + 0,9
So, 26.05. 8:00 1017 + 0,5
So, 26.05. 2:00 1017 - 0,6
Sa, 25.05. 20:00 1016 - 0,1
Ortszeit Luftdruck NN (hPa) Tendenz (hPa in 3 Std.)
Mo, 27.05. 14:00 1018 - 1,0
Mo, 27.05. 13:00 1019 - 1,0
Mo, 27.05. 12:00 1019 - 0,6
Mo, 27.05. 11:00 1020 + 0,1
Mo, 27.05. 10:00 1020 + 0,6
Mo, 27.05. 9:00 1020 + 0,8
Mo, 27.05. 8:00 1020 + 0,6
Ortszeit Schneehöhe (cm)
Mo, 27.05. 14:00 0
Mo, 27.05. 8:00 0
Mo, 27.05. 2:00 0
So, 26.05. 20:00 0
So, 26.05. 14:00 0
So, 26.05. 8:00 0
So, 26.05. 2:00 0
Sa, 25.05. 20:00 0
Ortszeit Schneehöhe (cm)
Mo, 27.05. 14:00 0
Mo, 27.05. 13:00 -
Mo, 27.05. 12:00 -
Mo, 27.05. 11:00 0
Mo, 27.05. 10:00 -
Mo, 27.05. 9:00 -
Mo, 27.05. 8:00 0
Link zu dieser Seite / Seite empfehlen

Das Wetter in ...